Terminal Aerodrome Forecast
Issued by NWS Mobile, AL

Home | Current Version | Previous Version | Text Only | Print | Product List | Glossary On
Versions: 1 2 3 4 5 6 7 8 9 10 11 12 13 14
000
FTUS44 KMOB 282336
TAFMOB
TAF
KMOB 282336Z 2900/2924 14013KT P6SM SCT015 BKN020 BKN025
     FM290300 14013G20KT P6SM BKN007 OVC015
     FM291500 14017G28KT P6SM SCT015 OVC025=

USA.gov is the U.S. government's official web portal to all federal, state and local government web resources and services.